FW8528 Weather Reports


Display with metric or nautical units.
time (UTC)temp
F
wind
direction
speed
MPH
gust
MPH
rain 1hr
in
rain 24hr
in
rain mn
in
humidity
%
barometer
mb
20260504041238 63 242 0.0 0.0 0.00 0.00 0.00 70 1009.9
20260504040734 63 241 0.0 0.0 0.00 0.00 0.00 84 1009.6
20260504040232 63 241 0.0 0.0 0.00 0.00 0.00 83 1009.6
20260504035727 64 241 0.0 0.0 0.00 0.00 0.00 77 1009.6
20260504035225 64 241 0.0 0.0 0.00 0.00 0.00 69 1009.6
20260504034722 65 241 0.0 0.0 0.00 0.00 0.00 80 1009.6
20260504034219 66 241 0.0 0.0 0.00 0.00 0.00 79 1009.6
20260504033717 66 241 0.0 0.0 0.00 0.00 0.00 66 1009.6
20260504033214 67 241 0.0 0.0 0.00 0.00 0.00 73 1009.6
20260504032711 68 271 0.0 0.0 0.00 0.00 0.00 56 1009.6
20260504032208 69 267 0.0 0.0 0.00 0.00 0.00 56 1009.6
20260504031705 69 268 0.0 1.0 0.00 0.00 0.00 52 1009.6
20260504031202 70 279 0.0 0.0 0.00 0.00 0.00 52 1009.6
20260504030658 70 217 1.0 1.0 0.00 0.00 0.00 51 1009.6
20260504030155 70 285 0.0 1.0 0.00 0.00 0.00 52 1009.6
20260504025652 70 259 1.0 1.0 0.00 0.00 0.00 53 1009.6
20260504025148 70 247 0.0 0.0 0.00 0.00 0.00 50 1009.6
20260504024646 69 292 0.0 1.0 0.00 0.00 0.00 60 1009.6
20260504024142 70 258 0.0 0.0 0.00 0.00 0.00 59 1009.2
20260504023639 70 240 0.0 0.0 0.00 0.00 0.00 69 1009.6
20260504023135 71 258 0.0 0.0 0.00 0.00 0.00 57 1009.6
20260504022631 71 254 0.0 0.0 0.00 0.00 0.00 53 1009.2
20260504022127 72 265 0.0 0.0 0.00 0.00 0.00 54 1009.2
20260504021626 72 253 0.0 1.0 0.00 0.00 0.00 53 1009.6
20260504021122 73 241 0.0 0.0 0.00 0.00 0.00 51 1009.6
20260504020619 73 257 0.0 0.0 0.00 0.00 0.00 51 1009.2
20260504020115 74 257 0.0 0.0 0.00 0.00 0.00 52 1009.6
20260504015612 75 266 0.0 0.0 0.00 0.00 0.00 49 1009.6
20260504015108 75 258 0.0 0.0 0.00 0.00 0.00 49 1009.6
20260504014604 76 258 0.0 0.0 0.00 0.00 0.00 46 1009.6
20260504014101 77 259 0.0 0.0 0.00 0.00 0.00 47 1009.6
20260504013559 78 262 0.0 0.0 0.00 0.00 0.00 44 1009.6
20260504013055 79 251 0.0 0.0 0.00 0.00 0.00 40 1009.6
20260504012553 79 257 0.0 0.0 0.00 0.00 0.00 44 1009.9
20260504012051 81 266 0.0 1.0 0.00 0.00 0.00 41 1009.9
20260504011547 81 233 0.0 1.0 0.00 0.00 0.00 41 1009.6
20260504011043 80 225 0.0 1.0 0.00 0.00 0.00 40 1009.9
20260504010539 80 245 0.0 0.0 0.00 0.00 0.00 36 1009.9
20260504010035 81 257 1.0 1.0 0.00 0.00 0.00 39 1009.9
20260504005532 81 227 1.0 3.0 0.00 0.00 0.00 35 1009.9
20260504005030 81 206 1.0 1.0 0.00 0.00 0.00 42 1009.6
20260504004527 82 233 0.0 1.0 0.00 0.00 0.00 38 1010.3
20260504004024 82 239 0.0 1.0 0.00 0.00 0.00 35 1009.9
20260504003520 83 277 1.0 2.0 0.00 0.00 0.00 34 1009.9
20260504003017 82 229 0.0 0.0 0.00 0.00 0.00 37 1009.9
20260504002514 82 228 1.0 1.0 0.00 0.00 0.00 38 1009.9
20260504002012 83 208 0.0 1.0 0.00 0.00 0.00 36 1009.9
20260504001509 83 249 1.0 2.0 0.00 0.00 0.00 34 1009.9
20260504001005 84 232 1.0 1.0 0.00 0.00 0.00 33 1009.9
20260504000503 84 228 1.0 1.0 0.00 0.00 0.00 32 1010.3
20260504000000 84 266 1.0 1.0 0.00 0.00 0.00 31 1009.9
20260503235458 84 273 1.0 1.0 0.00 0.00 0.00 31 1010.3
20260503234954 84 223 1.0 1.0 0.00 0.00 0.00 34 1010.3
20260503234452 84 177 1.0 2.0 0.00 0.00 0.00 41 1010.3
20260503233950 83 218 1.0 2.0 0.00 0.00 0.00 32 1010.3
20260503233446 83 176 3.0 3.0 0.00 0.00 0.00 34 1010.3
20260503232943 83 164 2.0 2.0 0.00 0.00 0.00 37 1010.3
20260503232439 83 244 2.0 3.0 0.00 0.00 0.00 33 1010.6
20260503231937 84 150 2.0 2.0 0.00 0.00 0.00 36 1010.6
20260503231435 84 244 1.0 1.0 0.00 0.00 0.00 36 1010.6
20260503230931 85 243 2.0 2.0 0.00 0.00 0.00 32 1010.6
20260503230428 84 253 1.0 1.0 0.00 0.00 0.00 34 1010.6
20260503225925 84 197 3.0 3.0 0.00 0.00 0.00 34 1010.6
20260503225422 85 213 3.0 5.0 0.00 0.00 0.00 35 1010.6
20260503224918 86 216 2.0 2.0 0.00 0.00 0.00 32 1010.9
20260503224415 85 230 0.0 0.0 0.00 0.00 0.00 32 1010.9
20260503223912 85 142 2.0 3.0 0.00 0.00 0.00 35 1011.3
20260503223410 85 215 2.0 2.0 0.00 0.00 0.00 32 1011.3
20260503222910 85 216 4.0 5.0 0.00 0.00 0.00 30 1011.3
20260503222409 85 233 3.0 5.0 0.00 0.00 0.00 35 1011.3
20260503221907 84 258 4.0 5.0 0.00 0.00 0.00 31 1011.3
20260503221406 84 274 3.0 3.0 0.00 0.00 0.00 32 1010.9
20260503220901 83 219 1.0 1.0 0.00 0.00 0.00 32 1011.3
20260503220358 85 235 2.0 3.0 0.00 0.00 0.00 33 1011.3
20260503215855 84 200 2.0 2.0 0.00 0.00 0.00 35 1011.3
20260503215352 82 232 1.0 1.0 0.00 0.00 0.00 36 1011.3
20260503214849 83 286 0.0 1.0 0.00 0.00 0.00 41 1011.7
20260503214347 85 97 2.0 3.0 0.00 0.00 0.00 33 1011.3
20260503213844 84 344 3.0 3.0 0.00 0.00 0.00 34 1011.7
20260503213342 84 217 1.0 1.0 0.00 0.00 0.00 34 1011.7
20260503212838 84 252 2.0 2.0 0.00 0.00 0.00 35 1011.7
20260503212336 82 348 1.0 2.0 0.00 0.00 0.00 37 1011.7
20260503211833 82 208 3.0 3.0 0.00 0.00 0.00 35 1012.0
20260503211330 81 168 4.0 5.0 0.00 0.00 0.00 35 1012.0
20260503210825 81 239 3.0 5.0 0.00 0.00 0.00 34 1012.0
20260503210323 82 236 3.0 3.0 0.00 0.00 0.00 36 1011.7
20260503205818 83 270 1.0 2.0 0.00 0.00 0.00 36 1012.0
20260503205314 82 257 2.0 2.0 0.00 0.00 0.00 36 1012.0
20260503204811 82 294 1.0 1.0 0.00 0.00 0.00 38 1012.0
20260503204309 82 300 0.0 1.0 0.00 0.00 0.00 39 1012.4
20260503203806 82 200 2.0 3.0 0.00 0.00 0.00 38 1012.4
20260503203303 81 271 1.0 2.0 0.00 0.00 0.00 38 1012.4
20260503202800 81 228 5.0 6.0 0.00 0.00 0.00 37 1012.4
20260503202258 80 299 1.0 1.0 0.00 0.00 0.00 45 1012.4
20260503201755 80 125 3.0 3.0 0.00 0.00 0.00 43 1012.4
20260503201252 79 118 3.0 5.0 0.00 0.00 0.00 42 1012.4
20260503200750 79 171 1.0 1.0 0.00 0.00 0.00 43 1012.7
20260503200246 78 133 1.0 2.0 0.00 0.00 0.00 41 1012.7
20260503195743 79 153 4.0 5.0 0.00 0.00 0.00 43 1012.7
20260503195239 79 188 1.0 2.0 0.00 0.00 0.00 45 1012.7
20260503194737 79 154 3.0 3.0 0.00 0.00 0.00 42 1012.7
20260503194233 78 35 1.0 1.0 0.00 0.00 0.00 44 1013.1
20260503193729 78 149 2.0 2.0 0.00 0.00 0.00 46 1012.7
20260503193225 78 138 1.0 1.0 0.00 0.00 0.00 43 1012.7
20260503192721 77 168 4.0 5.0 0.00 0.00 0.00 45 1013.1
20260503192216 78 227 0.0 0.0 0.00 0.00 0.00 48 1013.1
20260503191713 76 266 0.0 0.0 0.00 0.00 0.00 46 1013.1
20260503191211 76 264 1.0 1.0 0.00 0.00 0.00 47 1013.1
20260503190707 75 112 3.0 3.0 0.00 0.00 0.00 45 1013.1
20260503190204 77 121 2.0 2.0 0.00 0.00 0.00 43 1013.1
20260503185701 76 298 1.0 2.0 0.00 0.00 0.00 46 1013.4
20260503185156 75 278 1.0 2.0 0.00 0.00 0.00 45 1013.4
20260503184651 76 288 1.0 2.0 0.00 0.00 0.00 45 1013.1
20260503184148 77 159 1.0 2.0 0.00 0.00 0.00 45 1013.4
20260503183644 76 320 2.0 2.0 0.00 0.00 0.00 47 1013.4
20260503183142 76 27 0.0 0.0 0.00 0.00 0.00 46 1013.4
20260503182640 75 158 1.0 1.0 0.00 0.00 0.00 46 1013.4
20260503182139 73 230 0.0 0.0 0.00 0.00 0.00 46 1013.4
20260503181635 73 241 2.0 3.0 0.00 0.00 0.00 47 1013.4
20260503181132 72 289 1.0 2.0 0.00 0.00 0.00 49 1013.4
20260503180628 72 139 0.0 1.0 0.00 0.00 0.00 49 1013.4
20260503180126 71 297 0.0 1.0 0.00 0.00 0.00 53 1013.4
20260503175623 71 320 1.0 1.0 0.00 0.00 0.00 53 1013.7
20260503175120 70 179 2.0 2.0 0.00 0.00 0.00 57 1013.4
20260503174617 70 190 1.0 1.0 0.00 0.00 0.00 55 1013.4
20260503174114 70 266 0.0 0.0 0.00 0.00 0.00 57 1013.7
20260503173609 69 218 1.0 1.0 0.00 0.00 0.00 57 1013.4
20260503173106 69 211 1.0 1.0 0.00 0.00 0.00 57 1013.7
20260503172603 68 297 0.0 1.0 0.00 0.00 0.00 57 1013.7
20260503172100 68 114 2.0 2.0 0.00 0.00 0.00 57 1013.7
20260503171556 68 218 1.0 1.0 0.00 0.00 0.00 60 1013.7
20260503171054 68 225 0.0 0.0 0.00 0.00 0.00 59 1013.7
20260503170550 68 146 2.0 2.0 0.00 0.00 0.00 63 1013.7
20260503150942 54 263 0.0 0.0 0.00 0.00 0.00 91 1014.1
20260503150439 54 263 0.0 0.0 0.00 0.00 0.00 93 1013.7
20260503131332 50 265 0.0 0.0 0.00 0.00 0.00 99 1013.7
20260503130829 49 265 0.0 0.0 0.00 0.00 0.00 99 1013.7
20260503130327 49 265 0.0 0.0 0.00 0.00 0.00 99 1013.7
20260503110720 51 266 0.0 0.0 0.00 0.00 0.00 95 1014.1
20260503110218 51 266 0.0 0.0 0.00 0.00 0.00 95 1014.1
20260503100144 52 266 0.0 0.0 0.00 0.00 0.00 93 1014.1
20260503081533 53 266 0.0 0.0 0.00 0.00 0.00 92 1014.8
20260503081030 53 266 0.0 0.0 0.00 0.00 0.00 91 1014.4
20260503080526 53 266 0.0 0.0 0.00 0.00 0.00 91 1014.4
20260503072500 53 266 0.0 0.0 0.00 0.00 0.00 92 1014.4
20260503071957 54 266 0.0 0.0 0.00 0.00 0.00 92 1014.4
20260503071454 54 266 0.0 0.0 0.00 0.00 0.00 94 1014.4
20260503070950 55 266 0.0 0.0 0.00 0.00 0.00 92 1014.4
20260503070447 55 266 0.0 0.0 0.00 0.00 0.00 90 1014.4
20260503054906 56 266 0.0 0.0 0.00 0.00 0.00 99 1014.4
20260503054402 56 266 0.0 0.0 0.00 0.00 0.00 98 1014.1
20260503053900 56 266 0.0 0.0 0.00 0.00 0.00 98 1014.4
20260503053358 56 266 0.0 0.0 0.00 0.00 0.00 98 1014.1
20260503052854 57 266 0.0 0.0 0.00 0.00 0.00 98 1014.1
20260503052351 56 266 0.0 0.0 0.00 0.00 0.00 97 1014.4
20260503051847 57 266 0.0 0.0 0.00 0.00 0.00 96 1014.1
20260503051344 56 266 0.0 0.0 0.00 0.00 0.00 95 1014.1
20260503050841 57 266 0.0 0.0 0.00 0.00 0.00 96 1014.1
20260503050337 57 266 0.0 0.0 0.00 0.00 0.00 96 1014.1
20260503045834 57 266 0.0 0.0 0.00 0.00 0.00 96 1014.1
20260503045332 57 266 0.0 0.0 0.00 0.00 0.00 95 1014.1
20260503044828 58 266 0.0 0.0 0.00 0.00 0.00 95 1014.1
20260503044325 58 266 0.0 0.0 0.00 0.00 0.00 94 1014.1
20260503043822 58 266 0.0 0.0 0.00 0.00 0.00 91 1014.1
20260503043319 59 266 0.0 0.0 0.00 0.00 0.00 91 1014.1
20260503042815 59 266 0.0 0.0 0.00 0.00 0.00 85 1013.7
20260503042313 59 266 0.0 0.0 0.00 0.00 0.00 89 1014.1
20260503041808 59 266 0.0 0.0 0.00 0.00 0.00 91 1014.1